Terminal Aerodrome Forecast
Issued by NWS

Home | Current Version | Previous Version | Text Only | Print | Product List | Glossary On
Versions: 1 2 3 4 5 6 7 8 9 10 11 12 13 14
495
FTAK31 PAJN 052330
TAFAJN
TAF
PAJN 052330Z 0600/0624 11010G21KT P6SM -RA SCT025 OVC040
     FM060300 11010G20KT P6SM -RA SCT020 OVC035
     FM061000 11015G25KT 6SM -RA SCT020 OVC040 WS020/18035KT
     FM061400 10017G28KT 4SM RA BR FEW007 BKN020 OVC030
      WS020/18035KT
     FM062100 10014KT 5SM -RA FEW007 BKN025 OVC035 WS020/18035KT=

USA.gov is the U.S. government's official web portal to all federal, state and local government web resources and services.